Date String (YYYY-MM-DD hh:mm:ss) UTC,Instrument flags,Ambient pressure (hPa),Sample flow (lpm),Bypass flow (lpm),Sample temperature (°C),Ambient temperature (°C),ASC tube jacket temperature (°C),LED temperature (°C),Box temperature (°C),Sample RH (%),Span deviation,Mass concentration (μg/m³),Mass concentration (μg/m³),Mass concentration (μg/m³)
DateTimeUTC,F1_M11,P_M11,Q1_M11,Q2_M11,T1_M11,T2_M11,T3_M11,T4_M11,T5_M11,U1_M11,ZSPAN_M11,X0_M11,X2_M11,X1_M11
2023-05-28 09:00:00,,0829.2,4.99,0.00,29.4,27.5,00.0,37.8,30.9,21.3,0000.0,0007.07,0003.88,0003.25
2023-05-28 09:01:00,,0829.2,5.00,0.00,29.4,27.5,00.0,37.8,30.9,21.3,0000.0,0007.32,0003.92,0003.26
2023-05-28 09:02:00,,0829.2,5.00,0.00,29.4,27.5,00.0,37.8,30.9,21.5,0000.0,0007.45,0003.95,0003.28
2023-05-28 09:03:00,,0829.2,5.00,0.00,29.4,27.6,00.0,37.8,30.9,21.8,0000.0,0007.59,0003.99,0003.29
2023-05-28 09:04:00,,0829.2,5.00,0.00,29.4,27.6,00.0,37.8,30.9,21.8,0000.0,0007.62,0003.99,0003.28
2023-05-28 09:05:00,,0829.3,5.00,0.00,29.4,27.6,00.0,37.8,30.9,21.6,0000.0,0007.60,0003.96,0003.29
2023-05-28 09:06:00,,0829.2,5.00,0.00,29.4,27.6,00.0,37.8,30.9,21.5,0000.0,0007.71,0004.00,0003.31
2023-05-28 09:07:00,,0829.2,5.00,0.00,29.4,27.7,00.0,37.8,30.9,21.5,0000.0,0007.87,0004.04,0003.32
2023-05-28 09:08:00,,0829.2,5.00,0.00,29.4,27.7,00.0,37.8,30.9,21.3,0000.0,0007.91,0004.05,0003.31
2023-05-28 09:09:00,,0829.2,5.00,0.00,29.4,27.7,00.0,37.8,30.9,21.1,0000.0,0008.01,0004.07,0003.30
2023-05-28 09:10:00,,0829.1,5.00,0.00,29.4,27.6,00.0,37.8,30.9,21.1,0000.0,0008.04,0004.09,0003.30
2023-05-28 09:11:00,,0829.2,5.00,0.00,29.4,27.6,00.0,37.8,30.9,21.1,0000.0,0008.01,0004.11,0003.30
2023-05-28 09:12:00,,0829.2,5.00,0.00,29.3,27.6,00.0,37.7,30.9,21.1,0000.0,0007.92,0004.10,0003.30
2023-05-28 09:13:00,,0829.1,5.00,0.00,29.3,27.6,00.0,37.7,30.9,20.9,0000.0,0007.91,0004.10,0003.31
2023-05-28 09:14:00,,0829.1,5.00,0.00,29.3,27.5,00.0,37.7,30.8,20.9,0000.0,0007.81,0004.08,0003.31
2023-05-28 09:15:00,,0829.1,5.00,0.00,29.3,27.4,00.0,37.7,30.8,20.9,0000.0,0008.12,0004.10,0003.33
2023-05-28 09:16:00,,0829.1,4.99,0.00,29.3,27.3,00.0,37.7,30.8,21.0,0000.0,0008.74,0004.11,0003.34
2023-05-28 09:17:00,,0829.1,5.00,0.00,29.3,27.2,00.0,37.7,30.7,21.0,0000.0,0008.81,0004.15,0003.35
2023-05-28 09:18:00,,0829.1,5.01,0.00,29.2,27.1,00.0,37.7,30.7,21.0,0000.0,0008.76,0004.17,0003.36
2023-05-28 09:19:00,,0829.1,5.01,0.00,29.2,27.0,00.0,37.7,30.6,21.1,0000.0,0008.78,0004.20,0003.38
2023-05-28 09:20:00,,0829.1,5.00,0.00,29.2,27.0,00.0,37.7,30.6,21.2,0000.0,0008.77,0004.21,0003.40
2023-05-28 09:21:00,,0829.1,4.98,0.00,29.1,27.0,00.0,37.6,30.6,21.3,0000.0,0008.77,0004.21,0003.41
2023-05-28 09:22:00,,0829.1,5.00,0.00,29.1,27.0,00.0,37.6,30.6,21.3,0000.0,0008.73,0004.20,0003.41
2023-05-28 09:23:00,,0829.1,5.01,0.00,29.1,27.1,00.0,37.6,30.6,21.3,0000.0,0008.62,0004.15,0003.41
2023-05-28 09:24:00,,0829.1,5.00,0.00,29.1,27.1,00.0,37.6,30.6,21.3,0000.0,0008.48,0004.11,0003.39
2023-05-28 09:25:00,,0829.1,5.00,0.00,29.1,27.2,00.0,37.6,30.6,21.3,0000.0,0008.48,0004.12,0003.39
2023-05-28 09:26:00,,0829.1,5.00,0.00,29.1,27.2,00.0,37.6,30.6,21.3,0000.0,0008.47,0004.07,0003.39
2023-05-28 09:27:00,,0829.1,5.00,0.00,29.1,27.3,00.0,37.6,30.7,21.3,0000.0,0008.37,0004.08,0003.39
2023-05-28 09:28:00,,0829.1,4.99,0.00,29.1,27.3,00.0,37.5,30.7,21.3,0000.0,0008.68,0004.05,0003.39
2023-05-28 09:29:00,,0829.1,5.00,0.00,29.1,27.3,00.0,37.5,30.7,21.3,0000.0,0008.56,0004.01,0003.38
2023-05-28 09:30:00,,0829.1,5.00,0.00,29.1,27.3,00.0,37.5,30.7,21.3,0000.0,0008.48,0003.97,0003.37
2023-05-28 09:31:00,,0829.1,5.00,0.00,29.1,27.3,00.0,37.5,30.7,21.2,0000.0,0008.44,0003.94,0003.36
2023-05-28 09:32:00,,0829.0,5.00,0.00,29.1,27.4,00.0,37.5,30.7,21.1,0000.0,0008.47,0003.93,0003.35
2023-05-28 09:33:00,,0829.0,5.01,0.00,29.1,27.4,00.0,37.5,30.7,21.1,0000.0,0008.58,0003.96,0003.36
2023-05-28 09:34:00,,0829.0,5.01,0.00,29.1,27.4,00.0,37.5,30.7,21.2,0000.0,0008.82,0004.02,0003.37
2023-05-28 09:35:00,,0829.0,5.00,0.00,29.1,27.4,00.0,37.5,30.7,21.3,0000.0,0008.80,0004.01,0003.38
2023-05-28 09:36:00,,0829.0,5.00,0.00,29.1,27.4,00.0,37.5,30.7,21.4,0000.0,0008.81,0004.01,0003.38
2023-05-28 09:37:00,,0829.0,5.00,0.00,29.1,27.5,00.0,37.5,30.7,21.4,0000.0,0008.71,0004.05,0003.38
2023-05-28 09:38:00,,0828.9,5.00,0.00,29.1,27.5,00.0,37.5,30.7,21.4,0000.0,0008.25,0004.03,0003.37
2023-05-28 09:39:00,,0829.0,5.00,0.00,29.1,27.5,00.0,37.5,30.7,21.4,0000.0,0008.40,0004.04,0003.37
2023-05-28 09:40:00,,0829.0,5.00,0.00,29.1,27.5,00.0,37.5,30.7,21.4,0000.0,0008.52,0004.05,0003.36
2023-05-28 09:41:00,,0829.0,5.00,0.00,29.1,27.5,00.0,37.5,30.7,21.2,0000.0,0008.61,0004.07,0003.35
2023-05-28 09:42:00,,0829.0,5.00,0.00,29.1,27.5,00.0,37.5,30.7,21.1,0000.0,0009.18,0004.10,0003.36
2023-05-28 09:43:00,,0829.0,5.00,0.00,29.1,27.5,00.0,37.5,30.7,21.2,0000.0,0009.19,0004.11,0003.36
2023-05-28 09:44:00,,0829.0,5.00,0.00,29.1,27.5,00.0,37.5,30.7,21.1,0000.0,0009.06,0004.06,0003.34
2023-05-28 09:45:00,,0829.0,5.00,0.00,29.1,27.5,00.0,37.5,30.7,21.0,0000.0,0009.00,0004.06,0003.33
2023-05-28 09:46:00,,0829.0,5.00,0.00,29.2,27.5,00.0,37.5,30.7,21.0,0000.0,0009.15,0004.12,0003.33
2023-05-28 09:47:00,,0829.0,5.00,0.00,29.2,27.5,00.0,37.5,30.7,21.3,0000.0,0009.17,0004.13,0003.32
2023-05-28 09:48:00,,0829.0,5.00,0.00,29.2,27.5,00.0,37.5,30.7,21.3,0000.0,0009.14,0004.12,0003.32
2023-05-28 09:49:00,,0829.0,4.99,0.00,29.2,27.5,00.0,37.5,30.7,21.1,0000.0,0008.88,0004.12,0003.32
2023-05-28 09:50:00,,0828.9,4.99,0.00,29.2,27.5,00.0,37.5,30.7,21.1,0000.0,0008.41,0004.11,0003.31
2023-05-28 09:51:00,,0828.9,4.99,0.00,29.2,27.5,00.0,37.5,30.7,21.1,0000.0,0008.40,0004.11,0003.32
2023-05-28 09:52:00,,0828.9,5.01,0.00,29.2,27.5,00.0,37.5,30.7,21.1,0000.0,0008.32,0004.09,0003.31
2023-05-28 09:53:00,,0829.0,5.01,0.00,29.1,27.4,00.0,37.5,30.7,21.1,0000.0,0008.01,0004.07,0003.30
2023-05-28 09:54:00,,0828.9,5.00,0.00,29.1,27.4,00.0,37.5,30.7,21.0,0000.0,0008.13,0004.06,0003.30
2023-05-28 09:55:00,,0829.0,5.00,0.00,29.1,27.4,00.0,37.5,30.7,21.0,0000.0,0008.13,0004.07,0003.30
2023-05-28 09:56:00,,0829.0,4.99,0.00,29.1,27.4,00.0,37.5,30.7,20.9,0000.0,0008.25,0004.01,0003.29
2023-05-28 09:57:00,,0829.0,5.00,0.00,29.1,27.4,00.0,37.5,30.7,20.9,0000.0,0008.21,0003.95,0003.27
2023-05-28 09:58:00,,0829.0,5.00,0.00,29.1,27.4,00.0,37.5,30.7,20.8,0000.0,0008.12,0003.90,0003.27
2023-05-28 09:59:00,,0829.0,5.01,0.00,29.1,27.4,00.0,37.5,30.7,20.8,0000.0,0008.14,0003.89,0003.26
